Regional Weather Roundup
Issued by NWS

Home | Current Version | Previous Version | Graphics & Text | Print | Product List | Glossary On
Versions: 1 2 3 4 5 6 7 8 9 10 11 12 13 14 15 16 17 18 19 20 21 22 23 24 25 26 27 28 29 30 31 32 33 34 35 36 37 38 39 40 41 42 43 44 45 46 47 48 49 50
048
ASUS44 KLIX 282101
RWRLA
LOUISIANA WEATHER ROUNDUP
NATIONAL WEATHER SERVICE NEW ORLEANS LA
300 PM CST FRI NOV 28 2014

NOTE: "FAIR" INDICATES FEW OR NO CLOUDS BELOW 12,000 FEET WITH NO
      SIGNIFICANT WEATHER AND/OR OBSTRUCTIONS TO VISIBILITY.
      SKY/WX - SKY CONDITION AND SIGNIFICANT WEATHER.
      TMP - AIR TEMPERATURE.    DP   - DEWPOINT TEMPERATURE.
      RH  - RELATIVE HUMIDITY.  PRES - PRESSURE.
      HX  - HEAT INDEX.         WCI  - WIND CHILL INDEX.

*  THESE STATIONS ARE NOT NWS OR FAA STATIONS AND ARE NOT UNDER
   NWS QUALITY CONTROL.

LAZ040-048-061>063-065-066-069-282200-
SOUTHEAST LOUISIANA

CITY           SKY/WX    TMP DP  RH WIND       PRES   REMARKS
N.O. AUDUBON     N/A     59  44  57 MISG        N/A
N.O. INTL ARPT MOSUNNY   61  41  47 VRB7      30.30F
N.O. LAKEFRONT SUNNY     57  41  55 E8        30.32F
N.O. DOWNTOWN* FAIR      55  39  54 NE7       30.31F
SLIDELL        SUNNY     58  35  42 S7        30.31F
BATON ROUGE    SUNNY     61  32  33 SE8       30.28F
BOOTHVILLE     SUNNY     59  48  67 NE7       30.31F
BELLE CHASSE   SUNNY     59  38  45 E10       30.31F
BOGALUSA*      NOT AVBL
NEW ROADS*     NOT AVBL
GONZALES*      NOT AVBL
HAMMOND*       NOT AVBL
HOUMA*         SUNNY     63  41  45 SE5       30.30F
PORT FOURCHON* NOT AVBL

$$

LAZ041-044-053-054-282200-
SOUTHWEST LOUISIANA

CITY           SKY/WX    TMP DP  RH WIND       PRES   REMARKS
LAKE CHARLES   SUNNY     64  52  64 S14       30.25F
LAFAYETTE      SUNNY     63  44  50 SW12      30.27F
PATTERSON      SUNNY     64  45  48 E6        30.31F
SALT POINT       N/A     64  49  57 SE10      30.28F
NEW IBERIA     SUNNY     64  47  53 S10       30.28F
CHENAULT AIRPK NOT AVBL

$$

LAZ027-028-282200-
CENTRAL LOUISIANA

CITY           SKY/WX    TMP DP  RH WIND       PRES   REMARKS
FORT POLK      SUNNY     64  46  53 S10       30.22F
ALEXANDRIA INT SUNNY     63  40  42 S6        30.22F
ALEXANDRIA     SUNNY     62  38  40 SW12      30.24F

$$

LAZ001-002-282200-
NORTHWEST LOUISIANA

CITY           SKY/WX    TMP DP  RH WIND       PRES   REMARKS
SHREVEPORT     NOT AVBL
BARKSDALE AFB  NOT AVBL
DTN SHREVEPORT SUNNY     64  39  39 S10       30.17F

$$

LAZ014-016-282200-
NORTHEAST LOUISIANA

CITY           SKY/WX    TMP DP  RH WIND       PRES   REMARKS
MONROE         SUNNY     62  34  35 S9        30.23F
TALLULAH       SUNNY     61  24  24 S12       30.25F

$$




USA.gov is the U.S. government's official web portal to all federal, state and local government web resources and services.